Flag for U.S.A. Weather past 2 weeks in Mason, Ohio, U.S.A.

Now
26 °F

Clear.


Feels Like: 22 °F
Forecast: 22 / 50 °F
Wind: 3 mph from East

Location: Butler County Regional Airport

Current Time: Mar 3, 2015 at 4:08:02 AM

Latest Report: Mar 3, 2015 at 2:53 AM


Visibility: 10 mi

Pressure: 30.29 "Hg

Humidity: 71%

Dew point: 18 °F

Location of MasonLocation

Historic Weather in Mason — Graph

°F

Mason temperature yesterday

Maximum temperature yesterday: 33 °F (at 3:53 PM)
Minimum temperature yesterday: 20 °F (at 7:53 AM)
Average temperature yesterday: 27 °F

Past Weeks' High & Low Weather Summary

 TemperatureHumidityPressure
High35 °F (Feb 25, 2:53 PM)100% (Mar 1, 5:53 PM)30.80 "Hg (Mar 1, 5:53 PM)
Low-19 °F (Feb 24, 4:53 AM)32% (Feb 24, 2:53 PM)29.82 "Hg (Feb 18, 6:01 AM)
Average16 °F69%30.28 "Hg
* Reported Feb 16 2:53 AM — Mar 3 2:53 AM, Mason, Weather by CustomWeather, © 2015

Note: Actual official high and low records may vary slightly from our data, if they occured in-between our weather recording intervals... More about our weather records

Advertising

Mason weather history for previous 24 hours

 ConditionsComfort  
Time TempWeatherWind HumidityBarometerVisibility
2:53 AM
Tue, Mar 3
26 °FClear.3 mph71%30.29 "Hg10 mi
1:53 AM26 °FClear.5 mph63%30.30 "Hg10 mi
12:53 AM25 °FClear.6 mph69%30.31 "Hg10 mi
11:53 PM
Mon, Mar 2
25 °FClear.7 mph69%30.35 "Hg10 mi
10:53 PM26 °FClear.5 mph66%30.41 "Hg10 mi
9:53 PM26 °FPassing clouds.5 mph69%30.43 "Hg10 mi
8:53 PM28 °FPassing clouds.8 mph61%30.44 "Hg10 mi
7:53 PM26 °FClear.5 mph63%30.48 "Hg10 mi
6:53 PM29 °FClear.7 mph54%30.48 "Hg10 mi
5:53 PM31 °FSunny.7 mph49%30.48 "Hg10 mi
4:53 PM33 °FSunny.5 mph45%30.47 "Hg10 mi
3:53 PM33 °FSunny.No wind45%30.50 "Hg10 mi
2:53 PM32 °FSunny.5 mph50%30.50 "Hg10 mi
1:53 PM32 °FSunny.3 mph50%30.53 "Hg10 mi
12:53 PM31 °FSunny.No wind52%30.56 "Hg10 mi
11:53 AM29 °FSunny.3 mph58%30.58 "Hg10 mi
10:53 AM25 °FSunny.3 mph63%30.58 "Hg9 mi
9:53 AM24 °FSunny.5 mph65%30.58 "Hg9 mi
8:53 AM22 °FSunny.No wind72%30.56 "Hg8 mi
7:53 AM20 °FSunny.3 mph74%30.54 "Hg7 mi
6:53 AM22 °FClear.8 mph75%30.52 "Hg9 mi
5:53 AM21 °FClear.7 mph81%30.49 "Hg10 mi
4:53 AM22 °FClear.6 mph78%30.46 "Hg10 mi
Weather by CustomWeather, © 2015

See weather overviewHow to use our weather pages